Time,TemperatureF,DewpointF,PressureIn,WindDirection,WindDirectionDegrees,WindSpeedMPH,WindSpeedGustMPH,Humidity,HourlyPrecipIn,Conditions,Clouds,dailyrainin,SoftwareType,DateUTC
2013-03-14 00:03:00,54.9,49.8,30.10,SE,141,0.0,0.0,83,0.00,,,0.00,Wunderground v.1.15,2013-03-14 07:03:00,
2013-03-14 00:13:00,54.7,49.6,30.10,SE,141,0.0,0.0,83,0.00,,,0.00,Wunderground v.1.15,2013-03-14 07:13:00,
2013-03-14 00:23:00,54.5,49.4,30.10,SE,141,0.0,0.0,83,0.00,,,0.00,Wunderground v.1.15,2013-03-14 07:23:00,
2013-03-14 00:33:00,54.3,49.2,30.10,SE,141,0.0,0.0,83,0.00,,,0.00,Wunderground v.1.15,2013-03-14 07:33:00,
2013-03-14 00:43:00,54.0,49.3,30.10,SE,141,0.0,0.0,84,0.00,,,0.00,Wunderground v.1.15,2013-03-14 07:43:00,
2013-03-14 00:53:00,53.7,49.0,30.10,SE,141,0.0,0.0,84,0.00,,,0.00,Wunderground v.1.15,2013-03-14 07:53:00,
2013-03-14 01:03:00,53.3,48.9,30.10,SE,141,0.0,0.0,85,0.00,,,0.00,Wunderground v.1.15,2013-03-14 08:03:00,
2013-03-14 01:13:00,53.6,49.2,30.10,SE,141,0.0,0.0,85,0.00,,,0.00,Wunderground v.1.15,2013-03-14 08:13:00,
2013-03-14 01:23:00,53.6,49.2,30.10,SE,141,0.0,0.0,85,0.00,,,0.00,Wunderground v.1.15,2013-03-14 08:23:00,
2013-03-14 01:33:00,53.3,48.9,30.10,SE,141,0.0,0.0,85,0.00,,,0.00,Wunderground v.1.15,2013-03-14 08:33:00,
2013-03-14 01:43:00,52.9,48.5,30.10,SE,141,0.0,0.0,85,0.00,,,0.00,Wunderground v.1.15,2013-03-14 08:43:00,
2013-03-14 01:53:00,52.5,48.4,30.10,SE,141,0.0,0.0,86,0.00,,,0.00,Wunderground v.1.15,2013-03-14 08:53:00,
2013-03-14 02:03:00,52.2,48.4,30.10,SE,141,0.0,0.0,87,0.00,,,0.00,Wunderground v.1.15,2013-03-14 09:03:00,
2013-03-14 02:13:00,51.9,48.2,30.10,SE,141,0.0,0.0,87,0.00,,,0.00,Wunderground v.1.15,2013-03-14 09:13:00,
2013-03-14 02:23:00,52.1,48.3,30.10,SE,141,0.0,0.0,87,0.00,,,0.00,Wunderground v.1.15,2013-03-14 09:23:00,
2013-03-14 02:33:00,52.0,48.3,30.10,SE,141,0.0,0.0,87,0.00,,,0.00,Wunderground v.1.15,2013-03-14 09:33:00,
2013-03-14 02:43:00,51.8,48.4,30.10,SE,141,0.0,0.0,88,0.00,,,0.00,Wunderground v.1.15,2013-03-14 09:43:00,
2013-03-14 02:53:00,51.6,48.2,30.10,SE,141,0.0,0.0,88,0.00,,,0.00,Wunderground v.1.15,2013-03-14 09:53:00,
2013-03-14 03:03:00,51.4,48.0,30.10,SE,141,0.0,0.0,88,0.00,,,0.00,Wunderground v.1.15,2013-03-14 10:03:00,
2013-03-14 03:13:00,51.2,47.8,30.10,SE,141,0.0,0.0,88,0.00,,,0.00,Wunderground v.1.15,2013-03-14 10:13:00,
2013-03-14 03:23:00,51.0,47.6,30.10,SE,141,0.0,0.0,88,0.00,,,0.00,Wunderground v.1.15,2013-03-14 10:23:00,
2013-03-14 03:33:00,50.8,47.4,30.10,SE,141,0.0,0.0,88,0.00,,,0.00,Wunderground v.1.15,2013-03-14 10:33:00,
2013-03-14 03:43:00,50.7,47.6,30.10,SE,141,0.0,0.0,89,0.00,,,0.00,Wunderground v.1.15,2013-03-14 10:43:00,
2013-03-14 03:53:00,50.5,47.4,30.09,SE,141,0.0,0.0,89,0.00,,,0.00,Wunderground v.1.15,2013-03-14 10:53:00,
2013-03-14 04:03:00,50.3,47.2,30.10,SE,141,0.0,0.0,89,0.00,,,0.00,Wunderground v.1.15,2013-03-14 11:03:00,
2013-03-14 04:13:00,50.3,47.2,30.10,SE,141,0.0,0.0,89,0.00,,,0.00,Wunderground v.1.15,2013-03-14 11:13:00,
2013-03-14 04:23:00,50.2,47.1,30.09,SE,141,0.0,0.0,89,0.00,,,0.00,Wunderground v.1.15,2013-03-14 11:23:00,
2013-03-14 04:33:00,50.0,46.9,30.09,SE,141,0.0,0.0,89,0.00,,,0.00,Wunderground v.1.15,2013-03-14 11:33:00,
2013-03-14 04:43:00,49.9,46.8,30.09,SE,141,0.0,0.0,89,0.00,,,0.00,Wunderground v.1.15,2013-03-14 11:43:00,
2013-03-14 04:53:00,49.9,46.8,30.09,SE,141,0.0,0.0,89,0.00,,,0.00,Wunderground v.1.15,2013-03-14 11:53:00,
2013-03-14 05:03:00,49.8,46.7,30.09,SE,141,0.0,0.0,89,0.00,,,0.00,Wunderground v.1.15,2013-03-14 12:03:00,
2013-03-14 05:13:00,49.9,46.8,30.08,SE,141,0.0,0.0,89,0.00,,,0.00,Wunderground v.1.15,2013-03-14 12:13:00,
2013-03-14 05:23:00,49.7,46.6,30.09,SE,141,0.0,0.0,89,0.00,,,0.00,Wunderground v.1.15,2013-03-14 12:23:00,
2013-03-14 05:33:00,49.6,46.5,30.09,SE,141,0.0,0.0,89,0.00,,,0.00,Wunderground v.1.15,2013-03-14 12:33:00,
2013-03-14 05:43:00,49.4,46.6,30.09,SE,141,0.0,0.0,90,0.00,,,0.00,Wunderground v.1.15,2013-03-14 12:43:00,
2013-03-14 05:53:00,49.3,46.5,30.09,SE,141,0.0,0.0,90,0.00,,,0.00,Wunderground v.1.15,2013-03-14 12:53:00,
2013-03-14 06:03:00,49.5,46.7,30.09,SE,141,0.0,0.0,90,0.00,,,0.00,Wunderground v.1.15,2013-03-14 13:03:00,
2013-03-14 06:13:00,49.4,46.6,30.10,SE,141,0.0,0.0,90,0.00,,,0.00,Wunderground v.1.15,2013-03-14 13:13:00,
2013-03-14 06:23:00,49.2,46.4,30.10,SE,141,0.0,0.0,90,0.00,,,0.00,Wunderground v.1.15,2013-03-14 13:23:00,
2013-03-14 06:33:00,49.1,46.3,30.10,SE,141,0.0,0.0,90,0.00,,,0.00,Wunderground v.1.15,2013-03-14 13:33:00,
2013-03-14 06:43:00,48.7,45.9,30.10,SE,141,0.0,0.0,90,0.00,,,0.00,Wunderground v.1.15,2013-03-14 13:43:00,
2013-03-14 06:53:00,48.4,45.9,30.10,SE,141,0.0,0.0,91,0.00,,,0.00,Wunderground v.1.15,2013-03-14 13:53:00,
2013-03-14 07:03:00,48.1,45.6,30.10,SE,141,0.0,0.0,91,0.00,,,0.00,Wunderground v.1.15,2013-03-14 14:03:00,
2013-03-14 07:13:00,47.9,45.7,30.11,SE,141,0.0,0.0,92,0.00,,,0.00,Wunderground v.1.15,2013-03-14 14:13:00,
2013-03-14 07:23:00,47.7,45.5,30.11,SE,141,0.0,0.0,92,0.00,,,0.00,Wunderground v.1.15,2013-03-14 14:23:00,
2013-03-14 07:33:00,48.1,45.9,30.10,SE,141,0.0,0.0,92,0.00,,,0.00,Wunderground v.1.15,2013-03-14 14:33:00,
2013-03-14 07:43:00,48.0,45.8,30.11,SE,141,0.0,0.0,92,0.00,,,0.00,Wunderground v.1.15,2013-03-14 14:43:00,
2013-03-14 07:53:00,48.3,46.1,30.11,SE,141,0.0,0.0,92,0.00,,,0.00,Wunderground v.1.15,2013-03-14 14:53:00,
2013-03-14 08:03:00,49.0,46.8,30.11,SE,141,0.0,0.0,92,0.00,,,0.00,Wunderground v.1.15,2013-03-14 15:03:00,
2013-03-14 08:13:00,49.8,47.6,30.12,SE,141,0.0,0.0,92,0.00,,,0.00,Wunderground v.1.15,2013-03-14 15:13:00,
2013-03-14 08:23:00,50.7,48.2,30.12,SE,141,0.0,0.0,91,0.00,,,0.00,Wunderground v.1.15,2013-03-14 15:23:00,
2013-03-14 08:33:00,51.8,49.0,30.13,SE,141,0.0,0.0,90,0.00,,,0.00,Wunderground v.1.15,2013-03-14 15:33:00,
2013-03-14 08:43:00,53.6,49.2,30.13,SE,141,0.0,0.0,85,0.00,,,0.00,Wunderground v.1.15,2013-03-14 15:43:00,
2013-03-14 08:53:00,55.2,48.8,30.13,SE,141,0.0,0.0,79,0.00,,,0.00,Wunderground v.1.15,2013-03-14 15:53:00,
2013-03-14 11:03:00,69.8,49.8,30.16,ESE,113,1.0,1.0,49,0.00,,,0.00,Wunderground v.1.15,2013-03-14 18:03:00,
2013-03-14 11:13:00,70.3,49.7,30.16,South,186,1.0,1.0,48,0.00,,,0.00,Wunderground v.1.15,2013-03-14 18:13:00,
2013-03-14 11:23:00,71.5,50.2,30.16,SW,221,1.0,1.0,47,0.00,,,0.00,Wunderground v.1.15,2013-03-14 18:23:00,
2013-03-14 11:33:00,72.0,51.2,30.15,West,277,0.0,1.0,48,0.00,,,0.00,Wunderground v.1.15,2013-03-14 18:33:00,
2013-03-14 11:43:00,71.8,49.9,30.15,NNE,29,1.0,2.0,46,0.00,,,0.00,Wunderground v.1.15,2013-03-14 18:43:00,
2013-03-14 11:53:00,72.6,51.8,30.15,West,271,1.0,1.0,48,0.00,,,0.00,Wunderground v.1.15,2013-03-14 18:53:00,
2013-03-14 12:03:00,73.7,51.0,30.14,East,93,2.0,3.0,45,0.00,,,0.00,Wunderground v.1.15,2013-03-14 19:03:00,
2013-03-14 12:13:00,74.7,51.3,30.14,East,88,1.0,2.0,44,0.00,,,0.00,Wunderground v.1.15,2013-03-14 19:13:00,
2013-03-14 12:23:00,75.2,50.5,30.14,SE,124,1.0,1.0,42,0.00,,,0.00,Wunderground v.1.15,2013-03-14 19:23:00,
2013-03-14 12:33:00,75.8,52.3,30.14,ENE,77,1.0,1.0,44,0.00,,,0.00,Wunderground v.1.15,2013-03-14 19:33:00,
2013-03-14 12:43:00,75.7,52.2,30.14,WSW,257,1.0,3.0,44,0.00,,,0.00,Wunderground v.1.15,2013-03-14 19:43:00,
2013-03-14 12:53:00,75.9,51.2,30.14,WSW,243,1.0,1.0,42,0.00,,,0.00,Wunderground v.1.15,2013-03-14 19:53:00,
2013-03-14 13:03:00,76.5,51.0,30.14,WSW,252,1.0,1.0,41,0.00,,,0.00,Wunderground v.1.15,2013-03-14 20:03:00,
2013-03-14 13:13:00,76.6,51.1,30.14,WNW,290,2.0,2.0,41,0.00,,,0.00,Wunderground v.1.15,2013-03-14 20:13:00,
2013-03-14 13:23:00,76.4,51.0,30.13,SW,215,1.0,2.0,41,0.00,,,0.00,Wunderground v.1.15,2013-03-14 20:23:00,
2013-03-14 13:33:00,76.7,51.2,30.13,NNE,16,2.0,4.0,41,0.00,,,0.00,Wunderground v.1.15,2013-03-14 20:33:00,
2013-03-14 13:43:00,77.0,50.1,30.13,North,6,2.0,3.0,39,0.00,,,0.00,Wunderground v.1.15,2013-03-14 20:43:00,
2013-03-14 13:53:00,77.4,51.2,30.13,West,266,2.0,2.0,40,0.00,,,0.00,Wunderground v.1.15,2013-03-14 20:53:00,
2013-03-14 14:03:00,77.5,50.6,30.12,WSW,248,2.0,2.0,39,0.00,,,0.00,Wunderground v.1.15,2013-03-14 21:03:00,
2013-03-14 14:13:00,77.8,50.9,30.12,WSW,245,1.0,2.0,39,0.00,,,0.00,Wunderground v.1.15,2013-03-14 21:13:00,
2013-03-14 14:23:00,78.3,52.0,30.12,WSW,253,2.0,2.0,40,0.00,,,0.00,Wunderground v.1.15,2013-03-14 21:23:00,
2013-03-14 14:33:00,77.8,52.9,30.11,NW,307,1.0,1.0,42,0.00,,,0.00,Wunderground v.1.15,2013-03-14 21:33:00,
2013-03-14 14:43:00,77.8,52.9,30.11,WSW,245,1.0,1.0,42,0.00,,,0.00,Wunderground v.1.15,2013-03-14 21:43:00,
2013-03-14 14:53:00,77.6,52.0,30.11,ESE,102,1.0,1.0,41,0.00,,,0.00,Wunderground v.1.15,2013-03-14 21:53:00,
2013-03-14 15:03:00,77.9,51.6,30.10,NNW,338,1.0,1.0,40,0.00,,,0.00,Wunderground v.1.15,2013-03-14 22:03:00,
2013-03-14 15:13:00,77.5,51.9,30.10,WNW,295,2.0,2.0,41,0.00,,,0.00,Wunderground v.1.15,2013-03-14 22:13:00,
2013-03-14 15:23:00,77.1,52.2,30.11,WSW,256,2.0,2.0,42,0.00,,,0.00,Wunderground v.1.15,2013-03-14 22:23:00,
2013-03-14 15:33:00,77.1,51.6,30.11,NNW,344,1.0,1.0,41,0.00,,,0.00,Wunderground v.1.15,2013-03-14 22:33:00,
2013-03-14 15:43:00,77.5,51.3,30.11,NW,322,1.0,2.0,40,0.00,,,0.00,Wunderground v.1.15,2013-03-14 22:43:00,
2013-03-14 15:53:00,77.1,51.6,30.11,NW,307,1.0,1.0,41,0.00,,,0.00,Wunderground v.1.15,2013-03-14 22:53:00,
2013-03-14 16:03:00,77.4,51.2,30.10,NNW,345,1.0,2.0,40,0.00,,,0.00,Wunderground v.1.15,2013-03-14 23:03:00,
2013-03-14 16:13:00,77.2,50.3,30.10,NW,325,2.0,2.0,39,0.00,,,0.00,Wunderground v.1.15,2013-03-14 23:13:00,
2013-03-14 16:23:00,77.7,50.8,30.10,NW,315,1.0,1.0,39,0.00,,,0.00,Wunderground v.1.15,2013-03-14 23:23:00,
2013-03-14 16:33:00,77.5,49.9,30.10,WSW,245,1.0,1.0,38,0.00,,,0.00,Wunderground v.1.15,2013-03-14 23:33:00,
2013-03-14 16:43:00,77.9,50.2,30.09,West,274,1.0,1.0,38,0.00,,,0.00,Wunderground v.1.15,2013-03-14 23:43:00,
2013-03-14 16:53:00,77.7,48.6,30.09,NNW,346,2.0,2.0,36,0.00,,,0.00,Wunderground v.1.15,2013-03-14 23:53:00,
2013-03-14 17:03:00,78.5,49.3,30.09,East,82,1.0,1.0,36,0.00,,,0.00,Wunderground v.1.15,2013-03-15 00:03:00,
2013-03-14 17:13:00,78.6,49.4,30.09,NW,309,0.0,1.0,36,0.00,,,0.00,Wunderground v.1.15,2013-03-15 00:13:00,
2013-03-14 17:23:00,77.9,48.8,30.09,WSW,256,1.0,1.0,36,0.00,,,0.00,Wunderground v.1.15,2013-03-15 00:23:00,
2013-03-14 17:33:00,77.6,48.5,30.09,WSW,244,0.0,0.0,36,0.00,,,0.00,Wunderground v.1.15,2013-03-15 00:33:00,
2013-03-14 17:43:00,77.4,49.8,30.09,WSW,244,0.0,0.0,38,0.00,,,0.00,Wunderground v.1.15,2013-03-15 00:43:00,
2013-03-14 17:53:00,76.7,49.9,30.09,WSW,250,0.0,0.0,39,0.00,,,0.00,Wunderground v.1.15,2013-03-15 00:53:00,
2013-03-14 18:03:00,76.2,48.0,30.08,WSW,250,0.0,0.0,37,0.00,,,0.00,Wunderground v.1.15,2013-03-15 01:03:00,
2013-03-14 18:13:00,75.9,49.2,30.08,WSW,249,0.0,0.0,39,0.00,,,0.00,Wunderground v.1.15,2013-03-15 01:13:00,
2013-03-14 18:23:00,75.5,49.5,30.08,WSW,249,0.0,0.0,40,0.00,,,0.00,Wunderground v.1.15,2013-03-15 01:23:00,
2013-03-14 18:33:00,74.9,50.3,30.07,WSW,249,0.0,0.0,42,0.00,,,0.00,Wunderground v.1.15,2013-03-15 01:33:00,
2013-03-14 18:43:00,74.2,49.6,30.07,WSW,249,0.0,0.0,42,0.00,,,0.00,Wunderground v.1.15,2013-03-15 01:43:00,
2013-03-14 18:53:00,73.4,50.8,30.07,WSW,249,0.0,0.0,45,0.00,,,0.00,Wunderground v.1.15,2013-03-15 01:53:00,
2013-03-14 19:03:00,72.6,50.6,30.07,WSW,249,0.0,0.0,46,0.00,,,0.00,Wunderground v.1.15,2013-03-15 02:03:00,
2013-03-14 19:13:00,71.9,51.7,30.07,WSW,249,0.0,0.0,49,0.00,,,0.00,Wunderground v.1.15,2013-03-15 02:13:00,
2013-03-14 19:23:00,71.1,51.5,30.07,WSW,249,0.0,0.0,50,0.00,,,0.00,Wunderground v.1.15,2013-03-15 02:23:00,
2013-03-14 19:33:00,70.7,52.7,30.07,WSW,249,0.0,0.0,53,0.00,,,0.00,Wunderground v.1.15,2013-03-15 02:33:00,
2013-03-14 19:43:00,70.1,52.2,30.07,WSW,249,0.0,0.0,53,0.00,,,0.00,Wunderground v.1.15,2013-03-15 02:43:00,
2013-03-14 19:53:00,69.3,52.4,30.07,WSW,249,0.0,0.0,55,0.00,,,0.00,Wunderground v.1.15,2013-03-15 02:53:00,
2013-03-14 20:03:00,68.3,53.4,30.08,West,263,0.0,1.0,59,0.00,,,0.00,Wunderground v.1.15,2013-03-15 03:03:00,
2013-03-14 20:13:00,69.0,55.4,30.08,WSW,255,1.0,1.0,62,0.00,,,0.00,Wunderground v.1.15,2013-03-15 03:13:00,
2013-03-14 20:23:00,68.5,55.4,30.08,WSW,256,0.0,0.0,63,0.00,,,0.00,Wunderground v.1.15,2013-03-15 03:23:00,
2013-03-14 20:33:00,67.6,55.0,30.08,WSW,256,0.0,0.0,64,0.00,,,0.00,Wunderground v.1.15,2013-03-15 03:33:00,
2013-03-14 20:43:00,66.7,55.0,30.09,WSW,255,0.0,0.0,66,0.00,,,0.00,Wunderground v.1.15,2013-03-15 03:43:00,
2013-03-14 20:53:00,65.8,54.9,30.09,WSW,256,0.0,0.0,68,0.00,,,0.00,Wunderground v.1.15,2013-03-15 03:53:00,
2013-03-14 21:03:00,65.3,54.9,30.10,WSW,255,0.0,0.0,69,0.00,,,0.00,Wunderground v.1.15,2013-03-15 04:03:00,
2013-03-14 21:13:00,64.6,55.0,30.09,WSW,256,0.0,0.0,71,0.00,,,0.00,Wunderground v.1.15,2013-03-15 04:13:00,
2013-03-14 21:23:00,64.1,54.9,30.09,WSW,256,0.0,0.0,72,0.00,,,0.00,Wunderground v.1.15,2013-03-15 04:23:00,
2013-03-14 21:33:00,63.2,54.8,30.09,ESE,113,0.0,0.0,74,0.00,,,0.00,Wunderground v.1.15,2013-03-15 04:33:00,
2013-03-14 21:43:00,62.8,54.8,30.09,ESE,113,0.0,0.0,75,0.00,,,0.00,Wunderground v.1.15,2013-03-15 04:43:00,
2013-03-14 21:53:00,62.3,54.6,30.09,ESE,115,0.0,0.0,76,0.00,,,0.00,Wunderground v.1.15,2013-03-15 04:53:00,
2013-03-14 22:03:00,61.6,54.3,30.09,ESE,115,0.0,0.0,77,0.00,,,0.00,Wunderground v.1.15,2013-03-15 05:03:00,
2013-03-14 22:13:00,61.1,54.2,30.09,ESE,115,0.0,0.0,78,0.00,,,0.00,Wunderground v.1.15,2013-03-15 05:13:00,
2013-03-14 22:23:00,60.5,54.0,30.10,ESE,114,0.0,0.0,79,0.00,,,0.00,Wunderground v.1.15,2013-03-15 05:23:00,
2013-03-14 22:33:00,59.9,53.7,30.09,ESE,114,0.0,0.0,80,0.00,,,0.00,Wunderground v.1.15,2013-03-15 05:33:00,
2013-03-14 22:43:00,59.4,53.6,30.10,ESE,114,0.0,0.0,81,0.00,,,0.00,Wunderground v.1.15,2013-03-15 05:43:00,
2013-03-14 22:53:00,58.8,53.3,30.10,ESE,114,0.0,0.0,82,0.00,,,0.00,Wunderground v.1.15,2013-03-15 05:53:00,
2013-03-14 23:03:00,58.2,52.7,30.10,ESE,115,0.0,0.0,82,0.00,,,0.00,Wunderground v.1.15,2013-03-15 06:03:00,
2013-03-14 23:13:00,58.0,52.9,30.10,ESE,115,0.0,0.0,83,0.00,,,0.00,Wunderground v.1.15,2013-03-15 06:13:00,
2013-03-14 23:23:00,57.6,52.5,30.10,ESE,114,0.0,0.0,83,0.00,,,0.00,Wunderground v.1.15,2013-03-15 06:23:00,
2013-03-14 23:33:00,57.1,52.3,30.10,ESE,114,0.0,0.0,84,0.00,,,0.00,Wunderground v.1.15,2013-03-15 06:33:00,
2013-03-14 23:43:00,56.6,52.1,30.10,ESE,115,0.0,0.0,85,0.00,,,0.00,Wunderground v.1.15,2013-03-15 06:43:00,
2013-03-14 23:53:00,56.3,51.8,30.10,ESE,114,0.0,0.0,85,0.00,,,0.00,Wunderground v.1.15,2013-03-15 06:53:00,